Weather in Srinagar

India     34°05′06″N   74°48′43″E
temp.,
°C
wind,
m/s
gust,
m/s
humid.,
%
clouds,
%
prec.,
mm/h
press.,
hPa
HPBL,
m
21 june, mon
mon2123:30+16nw225991 0.1 100919
02:30+14nw127489 0.4 101012
05:30+13wnw11779 0.6 101111
08:30+18nnw116682 0.3 1011389
11:30+24nne11433 0.3 10081060
14:30+27ene323212 0.0 10041807
17:30+27ene123210 0.1 10031742
20:30+18wnw456336 1.1 100780
22 june, tue
tue2223:30+16wsw1170100 2.5 101011
02:30+14se1176100 0.1 101013
05:30+14nw1177100 0.1 101110
08:30+18nne016590 0.0 1011374
11:30+25e114230 0.1 1008833
14:30+27se222827 0.1 10051525
17:30+27nnw113217 0.1 1005971
20:30+20nw485151 0.0 1009168
23 june, wed
wed2323:30+15wnw12693 0.6 101116
02:30+14w11701 0.1 101211
05:30+13w11735 0.1 101310
08:30+19n11594 0.0 1013408
11:30+25ne11404 0.0 1010821
14:30+28ese122859 0.0 10061819
17:30+28wsw222891 0.1 10051493
20:30+17wnw356521 0.7 1011107
24 june, thu
thu2423:30+16sw11630 0.8 101312
02:30+14w11710 0.0 101210
05:30+13ssw11742 0.0 101211
08:30+19nne11598 0.0 1011441
11:30+25ne11417 0.0 1008829
14:30+29ese43276 0.0 10031868
17:30+19ssw81160100 0.9 1007314
20:30+18w236840 0.8 100959
25 june, fri
fri2523:30+15sw11694 0.8 100911
02:30+14s117015 0.0 100811
05:30+13wnw11740 0.0 100810
08:30+19n11623 0.0 1008411
11:30+26e11390 0.0 1004839
14:30+30ese332731 0.1 9991723
17:30+19w2363100 2.4 1005121
20:30+16s2381100 1.9 100881